Location: Endfield
(51.6667°N, 0.0667°W)
Time: 06:40:53
(UTC+00:00)

Cosmos 2297 - Pass Details

Date: 19 May 2024
Orbit: 834 x 859 km, 71.0° (Epoch: 19 June)

Event Time Altitude Azimuth Distance (km) Brightness Sun altitude
Rises 20:37:26 0° 329° (NNW) 3,446 8.7 -6.2°
Reaches altitude 10° 20:39:55 10° 332° (NNW) 2,506 7.6 -6.4°
Maximum altitude 20:45:41 73° 57° (ENE) 901 3.9 -7.1°
Drops below altitude 10° 20:51:24 10° 143° (SE) 2,482 5.5 -7.7°
Enters shadow 20:51:34 - 143° (SE) 2,551 5.5 -7.7°
